Content
SEND FEEDBACK

Daily
Averages
Monthly
Summary
United States of America

RAPID CITY, SOUTH DAKOTA


Home > North America > United States > South Dakota
Elevation: 3162 feet     Latitude: 44 03N     Longitude: 103 04W

WEATHER
 
SELECT A DAY
Number of Records: 204,365;   Date Range: 1/1/95 - 11/26/14
 
SHARE

PRINT THIS DATA

[ ← Previous Day ]
WEATHER ALMANAC - JANUARY 17, 2013
[ Next Day → ]
[ °C ]   °F
Weather ElementAverageHighLow
Temperature33.7 °F45 °F (1:52 pm)21.9 °F (5:52 am)
Dewpoint21.6 °F28.9 °F (3:52 pm)16 °F (5:52 am)
Humidity61.8 %78 % (5:52 am)49 % (11:52 am)
Barometer30.29 in30.44 in (7:52 am)30.07 in (11:52 pm)
Wind Speed3.6 mph10.4 mph (11:52 am)
Weather ElementAverage
Visibility10 mi
Wind DirectionSSE (141.7 °)

Weather ElementTotal
Precipitation---
Heating Degree Days31.6 (Base 65)
Averaged from 23 records on January 17, 2013
WEATHER CONDITIONS BREAKOUT
WIND DIRECTION BREAKOUT
WEATHER BY HOUR - JANUARY 17, 2013
[ °C ]   °F
Local TimeTemperatureDewpointHumidityBarometerVisibilityWind DirectionWind SpeedGust SpeedPrecipitationEventsConditions
1:52 AM30.0 °F19.0 °F64 %30.35 in10.0 miWNW (300°)5.8 mphClear
2:52 AM30.0 °F19.0 °F64 %30.37 in10.0 miWNW (290°)6.9 mphClear
3:52 AM26.6 °F19.4 °F74 %30.29 in10.0 miNW (320°)3.5 mphClear
4:52 AM28.0 °F18.0 °F66 %30.39 in10.0 miWest (280°)3.5 mphClear
5:52 AM21.9 °F16.0 °F78 %30.41 in10.0 miNNW (330°)4.6 mphClear
6:52 AM25.0 °F17.1 °F72 %30.43 in10.0 miNW (320°)4.6 mphClear
7:52 AM28.0 °F18.0 °F66 %30.44 in10.0 miCalmClear
8:52 AM36.0 °F23.0 °F59 %30.42 in10.0 miCalmClear
9:52 AM36.0 °F25.0 °F64 %30.41 in10.0 miSW (230°)3.5 mphClear
10:52 AM39.0 °F25.0 °F57 %30.37 in10.0 miSE (130°)6.9 mphClear
11:52 AM42.1 °F24.1 °F49 %30.33 in10.0 miSSE (150°)10.4 mphClear
12:52 PM42.1 °F27.0 °F55 %30.30 in10.0 miSE (140°)9.2 mphClear
1:52 PM45.0 °F27.0 °F49 %30.25 in10.0 miSouth (170°)3.5 mphClear
2:52 PM45.0 °F28.0 °F52 %30.23 in10.0 miSE (130°)4.6 mphClear
3:52 PM42.1 °F28.9 °F60 %30.22 in10.0 miESE (110°)5.8 mphClear
4:52 PM37.0 °F27.0 °F67 %30.23 in10.0 miCalmClear
5:52 PM37.0 °F23.0 °F57 %30.23 in10.0 miSW (230°)6.9 mphClear
6:52 PM33.1 °F21.0 °F61 %30.22 in10.0 miCalmClear
7:52 PM30.0 °F19.9 °F66 %30.21 in10.0 miCalmClear
8:52 PM30.9 °F18.0 °F59 %30.16 in10.0 miCalmClear
9:52 PM30.0 °F18.0 °F61 %30.14 in10.0 miCalmClear
10:52 PM30.9 °F17.1 °F57 %30.11 in10.0 miCalmClear
11:52 PM28.9 °F18.0 °F64 %30.07 in10.0 miSE (130°)3.5 mphClear
Hourly data recorded from KRAP, located miles away from Rapid City, South Dakota







STORIES FROM OUR PARTNERS